Probability
0 0 0 0 0 0 0 1 0 1 3 4 4 3 1 0 0 0 0 0 0 0 0 0 0 0 0 0 0 0 0 0 0 0 0 0 0 0 0 0 0 0 0 0
0 0 0 0 0 0 1 1 1 1 1 2 3 2 1 0 0 0 0 0 0 0 0 0 0 0 0 0 0 0 0 0 0 0 0 0 0 0 0 0 0 0 0 0
0 0 0 0 0 0 1 2 2 0 0 1 1 1 0 0 0 0 0 0 0 0 0 0 0 0 0 0 0 0 0 0 0 0 0 0 0 0 0 0 0 0 0 0
0 0 0 0 0 0 1 1 1 0 0 0 0 0 0 0 0 0 0 0 0 0 0 0 0 0 0 0 0 0 0 0 0 0 0 0 0 0 0 0 0 0 0 0
0 0 0 0 0 0 0 0 0 0 0 0 0 0 0 0 0 0 0 0 0 0 0 0 0 0 0 0 0 0 0 0 0 0 0 0 0 0 0 0 0 0 0 0
0 0 0 0 0 0 0 0 0 0 0 0 0 0 0 0 0 0 0 0 0 0 0 0 0 0 0 0 0 0 0 0 0 0 0 0 0 0 0 0 0 0 0 0
0 0 0 0 0 0 0 0 0 0 0 0 0 0 0 0 0 0 0 0 0 0 0 0 0 0 0 0 0 0 0 0 0 0 0 0 0 0 0 0 0 0 0 0
0 0 0 0 0 0 0 0 0 0 0 0 0 0 0 0 0 0 0 0 0 0 0 0 0 0 0 0 0 0 0 0 0 0 0 0 0 0 0 0 0 0 0 0
0 0 0 0 0 0 0 0 0 0 0 0 0 0 0 0 0 0 0 0 0 0 0 0 0 0 0 0 0 0 0 0 0 0 0 0 0 0 0 0 0 0 0 0
0 0 0 0 0 0 0 0 0 0 0 0 0 0 0 0 0 0 0 0 0 0 0 0 0 0 0 0 0 0 0 0 0 0 0 0 0 0 0 0 0 0 0 0
0 0 0 0 0 0 0 0 0 0 0 0 0 0 0 0 0 0 0 0 0 0 0 0 0 0 0 0 0 0 0 0 0 0 0 0 0 0 0 0 0 0 0 0
0 0 0 0 0 0 0 0 0 0 0 0 0 0 0 0 0 0 0 0 0 0 0 0 0 0 0 0 0 0 0 0 0 0 0 0 0 0 0 0 0 0 0 0
0 0 0 0 0 0 0 0 0 0 0 0 0 0 0 0 0 0 0 0 0 0 0 0 0 0 0 0 0 0 0 0 0 0 0 0 0 0 0 0 0 0 0 0
0 0 0 0 0 0 0 0 0 0 0 0 0 0 0 0 0 0 0 0 0 0 0 0 0 0 0 0 0 0 0 0 0 0 0 0 0 0 0 0 0 0 0 0
0 0 0 0 0 0 0 0 0 0 0 0 0 0 0 0 0 0 0 0 0 0 0 0 0 0 0 0 0 0 0 0 0 0 0 0 0 0 0 0 0 0 0 0
0 0 0 0 0 0 0 0 0 0 0 0 0 0 0 0 0 0 0 0 0 0 0 0 0 0 0 0 0 0 0 0 0 0 0 0 0 0 0 0 0 0 0 0
0 0 0 0 0 0 0 0 0 0 0 0 0 0 0 0 0 0 0 0 0 0 0 0 0 0 0 0 0 0 0 0 0 0 0 0 0 0 0 0 0 0 0 0
0 0 0 0 0 0 0 0 0 0 0 0 0 0 0 0 0 0 0 0 0 0 0 0 0 0 0 0 0 0 0 0 0 0 0 0 0 0 0 0 0 0 0 0
0 0 0 0 0 0 0 0 0 0 0 0 0 0 0 0 0 0 0 0 0 0 0 0 0 0 0 0 0 0 0 0 0 0 0 0 0 0 0 0 0 0 0 0
0 0 0 0 0 0 0 0 0 0 0 0 0 0 0 0 0 0 0 0 0 0 0 0 0 0 0 0 0 0 0 0 0 0 0 0 0 0 0 0 0 0 0 0
0 0 0 0 0 0 0 0 0 0 0 0 0 0 0 0 0 0 0 0 0 0 0 0 0 0 0 0 0 0 0 0 0 0 0 0 0 0 0 0 0 0 0 0
0 0 0 0 0 0 0 0 0 0 0 0 0 0 0 0 0 0 0 0 0 0 0 0 0 0 0 0 0 0 0 0 0 0 0 0 0 0 0 0 0 0 0 0
0 0 0 0 0 0 0 0 0 0 0 0 0 0 0 0 0 0 0 0 0 0 0 0 0 0 0 0 0 0 0 0 0 0 0 0 0 0 0 0 0 0 0 0
0 0 0 0 0 0 0 0 0 0 0 0 0 0 0 0 0 0 0 0 0 0 0 0 0 0 0 0 0 0 0 0 0 0 0 0 0 0 0 0 0 0 0 0
0 0 0 0 0 0 0 0 0 0 0 0 0 0 0 0 0 0 0 0 0 0 0 0 0 0 0 0 0 0 0 0 0 0 0 0 0 0 0 0 0 0 0 0
0 0 0 0 0 0 0 0 0 0 0 0 0 0 0 0 0 0 0 0 0 0 0 0 0 0 0 0 0 0 0 0 0 0 0 0 0 0 0 0 0 0 0 0
0 0 0 0 0 0 0 0 0 0 0 0 0 0 0 0 0 0 0 0 0 0 0 0 0 0 0 0 0 0 0 0 0 0 0 0 0 0 0 0 0 0 0 0
Wind_Speed
2 3 6 9 9 8 7 3 4 5 7 7 7 9 8 8 9 9 10 10 10 11 10 10 11 11 11 11 10 10 11 11 9 8 8 8 8 7 7 8 8 8 8 7
3 6 10 12 12 8 7 6 7 9 8 6 7 7 8 8 9 10 10 11 11 11 11 11 10 11 10 10 9 9 10 9 8 8 7 7 7 6 7 7 6 6 6 5
1 3 6 9 8 7 7 6 3 4 6 8 8 7 6 7 9 10 11 11 11 10 9 9 8 8 9 8 8 8 8 8 7 7 6 6 6 6 6 5 5 5 4 4
2 4 6 1 1 7 9 8 8 10 8 9 9 9 8 7 9 10 10 10 9 8 7 7 8 7 7 8 7 7 7 6 6 6 6 5 5 5 4 3 3 2 2 2
4 4 4 1 1 2 5 5 4 9 10 11 11 10 8 7 8 9 8 8 7 7 7 7 7 7 7 7 6 7 6 6 5 5 5 5 5 3 2 2 2 1 1 2
4 4 2 2 6 1 8 4 2 7 10 9 5 5 3 5 8 9 8 7 6 6 7 6 5 5 7 6 6 5 5 4 4 4 5 4 3 2 1 1 0 1 1 2
4 4 1 4 6 3 3 3 3 6 7 5 2 5 8 8 8 8 7 7 6 6 5 4 5 6 6 5 4 3 4 4 4 4 4 3 2 1 1 1 1 2 2 2
3 3 2 5 4 4 4 3 5 5 6 8 11 12 10 9 8 7 7 6 5 5 5 4 5 6 6 4 3 3 4 4 3 3 2 3 2 1 1 2 2 3 3 3
4 3 3 2 4 4 5 6 4 6 8 12 12 10 9 8 7 6 6 5 5 6 5 4 4 5 5 2 2 3 3 2 2 2 1 1 1 1 1 2 2 2 2 2
5 3 3 4 5 5 6 6 6 9 10 10 11 10 9 7 6 5 5 5 5 5 5 3 3 3 3 2 2 3 2 1 1 1 1 1 0 1 2 2 2 2 2 1
4 3 4 3 3 5 6 8 9 9 9 9 11 10 8 7 6 5 4 4 4 5 4 3 2 2 2 2 3 2 1 1 2 2 2 1 0 0 1 1 3 3 2 1
6 7 6 3 3 6 7 7 9 10 9 8 9 8 7 6 5 5 5 4 4 4 4 3 3 2 2 2 3 3 1 1 2 2 1 1 2 2 4 2 4 5 4 2
5 5 6 6 5 5 6 8 9 11 11 10 8 8 7 5 4 5 5 5 5 4 4 3 3 2 2 2 3 3 2 2 2 1 1 2 2 3 1 1 1 1 1 2
9 9 7 4 5 6 9 10 11 11 10 9 8 8 7 5 5 6 5 4 4 4 3 3 2 1 2 2 2 2 2 2 1 1 1 2 3 3 3 2 1 2 3 5
6 7 8 7 8 8 9 11 12 10 9 8 7 7 7 7 6 5 4 4 4 4 3 2 1 1 2 1 2 2 2 1 0 1 1 2 3 3 2 2 1 0 2 3
9 10 10 10 9 9 10 11 11 10 9 7 7 7 7 6 5 5 4 5 5 4 2 2 1 2 2 1 0 1 1 2 3 2 2 3 3 3 3 2 2 0 1 2
11 9 10 10 9 9 9 9 9 9 8 8 8 7 7 6 5 4 4 4 5 4 3 2 0 1 2 2 1 0 0 2 5 4 3 3 3 3 3 2 2 1 1 2
10 10 10 11 10 9 9 9 9 9 9 8 8 7 7 6 5 4 4 4 3 2 1 1 1 1 2 3 1 0 1 3 3 3 3 3 3 3 3 2 2 1 1 2
12 12 11 10 9 9 9 9 9 9 8 8 8 7 6 5 5 4 3 4 4 2 2 2 2 3 3 4 3 1 3 4 3 3 2 3 3 2 2 2 2 2 1 2
11 12 11 10 9 9 9 9 9 8 8 8 7 7 5 5 4 4 4 3 3 4 3 1 3 3 3 3 4 2 3 4 4 3 3 3 3 3 3 3 3 2 2 2
12 12 12 11 9 9 9 9 9 8 7 8 8 7 6 4 4 5 4 2 2 1 2 3 3 2 2 2 3 2 3 4 4 4 4 3 3 3 3 3 3 2 2 2
11 11 11 10 10 8 8 7 8 8 8 7 7 7 6 4 4 4 3 3 2 2 3 2 2 2 3 4 3 3 3 4 4 4 4 4 4 4 3 3 2 2 2 2
10 9 10 10 10 8 7 7 8 7 7 7 7 7 6 5 4 5 3 3 2 3 3 2 2 3 5 3 2 3 3 3 4 4 4 4 4 4 3 3 2 1 1 2
9 9 10 9 8 8 7 7 7 6 7 7 6 6 5 4 3 3 4 5 6 4 2 2 2 4 5 2 3 3 3 3 4 4 4 4 4 3 3 3 2 2 2 3
10 9 9 10 8 6 7 7 6 6 6 5 5 5 5 5 5 5 4 5 6 4 2 2 1 3 3 2 3 4 3 4 4 5 5 4 4 3 3 3 2 2 2 3
9 8 8 8 7 6 6 6 5 4 4 4 3 3 4 4 5 5 4 5 6 5 3 2 2 3 2 2 3 3 3 4 5 5 5 4 4 4 3 3 3 2 3 3
9 7 6 6 5 6 6 6 5 5 5 5 4 4 5 6 5 5 5 4 4 4 3 3 3 3 4 4 3 3 3 4 4 4 4 4 3 3 3 4 3 3 3 4
Wind_Direction
95 81 74 57 37 44 63 76 106 100 104 117 118 116 114 110 111 103 96 91 89 88 87 89 90 89 89 89 87 90 89 86 84 83 80 78 75 71 70 73 85 93 95 89
64 85 76 55 36 46 54 60 93 101 88 94 96 97 105 110 114 106 100 96 92 89 89 89 92 94 92 91 90 90 89 88 85 83 79 78 78 75 75 77 83 89 95 98
47 131 77 44 17 47 54 31 68 87 106 114 101 99 108 115 114 111 110 106 100 94 90 89 87 91 93 92 90 90 91 91 87 85 82 80 86 81 80 81 89 96 107 114
87 65 73 120 81 91 82 60 77 97 105 103 99 87 76 87 107 109 106 104 99 96 91 87 88 87 88 89 89 89 88 87 85 86 86 83 82 81 77 80 95 112 136 155
83 88 98 74 309 190 121 82 96 120 123 120 116 90 68 70 91 100 102 102 98 97 98 96 95 99 98 93 93 93 92 92 93 96 98 92 85 77 71 82 92 148 194 193
86 98 123 288 316 94 110 99 150 146 148 154 143 110 115 97 97 96 94 95 97 94 93 95 94 100 100 99 98 100 103 104 103 103 107 105 104 92 75 102 170 249 258 242
79 91 89 303 325 53 115 185 167 155 158 155 104 124 124 112 100 99 98 96 96 94 92 97 100 99 99 100 107 115 109 100 95 104 119 125 115 93 72 35 7 339 321 311
84 97 249 310 25 91 158 135 112 117 121 113 110 110 113 111 109 107 105 102 101 98 92 88 94 98 101 103 113 106 101 101 104 124 139 138 125 40 30 42 31 6 4 354
134 176 224 35 93 119 124 113 114 116 122 125 121 120 118 115 115 111 110 106 101 103 94 81 91 106 112 122 109 97 101 115 127 146 164 152 154 148 47 58 68 41 36 19
85 93 98 85 94 96 104 111 117 127 129 127 125 126 123 121 119 116 112 110 108 105 102 94 97 109 130 135 116 112 128 177 204 213 250 264 229 171 141 126 106 78 50 21
104 143 97 66 94 113 109 112 117 125 127 130 129 129 128 125 124 122 117 114 116 121 124 127 124 122 145 147 129 129 161 239 260 254 241 237 55 72 164 184 174 156 168 191
181 190 152 160 135 124 126 132 135 131 125 127 129 128 124 123 125 123 122 120 118 123 128 136 136 154 185 168 144 141 165 261 266 267 251 178 138 62 46 99 126 140 158 171
138 132 123 126 114 115 125 129 129 129 130 127 122 124 123 122 124 123 125 129 134 142 144 144 143 168 197 184 164 169 202 238 258 257 209 177 160 155 147 20 6 301 268 286
113 108 98 105 112 111 116 115 114 114 117 119 121 123 121 119 122 129 139 149 146 139 139 147 151 207 232 201 182 200 224 244 226 222 188 164 162 168 163 167 237 310 302 296
106 114 125 119 108 107 112 117 117 118 118 116 121 123 123 124 131 141 145 133 118 113 119 120 112 292 283 219 201 226 235 237 194 129 127 134 139 139 142 151 151 283 319 324
120 113 117 119 122 122 123 126 127 129 128 125 125 128 131 131 128 126 127 124 120 125 130 106 67 325 341 34 5 299 277 200 138 122 115 115 117 124 130 138 144 166 309 316
131 136 137 136 134 131 133 134 135 135 132 131 135 133 125 119 118 126 137 139 141 151 156 145 213 332 28 50 54 43 120 126 122 110 117 124 128 139 150 152 158 182 289 324
141 143 145 144 142 138 135 134 134 134 136 140 136 130 130 137 150 165 161 138 123 115 175 224 283 7 18 21 33 58 136 138 131 129 128 127 136 144 146 147 150 136 346 351
130 133 135 136 138 136 136 137 139 139 141 140 139 143 150 157 161 159 146 138 141 164 263 297 43 60 36 15 22 60 116 133 133 134 129 127 116 117 119 116 108 91 64 28
130 133 135 135 135 135 137 141 141 140 143 141 137 138 145 157 155 142 131 142 189 211 224 152 81 62 27 359 23 77 112 131 136 132 126 123 119 116 113 111 104 94 71 32
136 138 138 139 138 138 140 142 141 143 144 142 142 150 160 167 157 144 135 150 267 248 161 121 97 71 5 4 39 88 118 127 128 131 129 124 117 110 108 106 99 89 64 28
140 139 141 141 139 139 143 142 142 144 144 146 149 150 149 148 141 139 156 183 215 147 120 111 112 66 33 43 59 93 118 127 128 125 123 122 120 116 112 112 108 91 62 32
141 140 141 144 146 147 146 145 148 148 150 154 156 160 163 164 158 147 171 226 202 143 133 156 155 65 48 52 71 100 114 123 128 128 128 127 128 128 127 126 121 107 71 40
142 144 145 145 142 142 149 157 153 153 155 158 166 167 156 146 163 191 176 184 182 159 160 188 111 60 50 68 95 99 99 107 116 124 126 126 126 125 125 125 119 101 76 67
145 145 146 146 148 155 159 156 146 147 149 160 173 170 158 159 165 185 185 191 191 180 195 228 151 86 75 95 103 104 103 110 119 122 123 126 126 126 126 127 125 110 88 79
148 150 153 157 157 155 153 147 148 156 154 166 187 178 159 165 167 171 183 199 205 204 209 224 184 147 148 151 136 123 114 110 109 113 124 127 130 132 133 130 119 104 96 95
145 145 146 148 153 154 152 153 157 167 170 172 184 179 165 166 176 187 194 203 209 212 211 206 180 161 156 156 147 139 133 129 125 126 128 128 130 132 131 125 116 107 101 98